Regional Weather Roundup
Issued by NWS Charleston, SC

Current Version | Previous Version | Text Only | Print | Product List | Glossary Off
Versions: 1 2 3 4 5 6 7 8 9 10 11 12 13 14 15 16 17 18 19 20 21 22 23 24 25 26 27 28 29 30 31 32 33 34 35 36 37 38 39 40 41 42 43 44 45 46 47 48 49 50

000
ASUS42 KCHS 260410
RWRCHS

REGIONAL WEATHER ROUNDUP
NATIONAL WEATHER SERVICE CHARLESTON SC
1200 AM EDT SAT JUL 26 2014

NOTE: "FAIR" INDICATES FEW OR NO CLOUDS BELOW 12,000 FEET WITH NO
SIGNIFICANT WEATHER AND/OR OBSTRUCTIONS TO VISIBILITY.

NOT ALL STATIONS ARE QUALITY CONTROLLED BY THE NATIONAL
WEATHER SERVICE. USE DATA WITH CAUTION...ESPECIALLY
DEWPOINT OBSERVATIONS.

SCZ027-030-031-034>040-042>050-260500-
...SOUTH CAROLINA...

CITY           SKY/WX    TMP DP  RH WIND       PRES   REMARKS
N CHARLESTON   CLOUDY    76  71  85 CALM      30.02F
WATERFRONT PRK   N/A     77 N/A N/A W7G14       N/A
FORT JOHNSON   NOT AVBL
MOUNT PLEASANT FAIR      75  73  94 CALM      30.03S
JOHNS ISLAND   PTCLDY    75  70  83 W8        30.03S
PINOPOLIS        N/A     79  72  78 W12       29.97S
MONCKS CORNER    N/A     75  73  94 CALM      30.03F
SUMMERVILLE    FAIR      73  73 100 CALM      30.01F
BEAUFORT MCAS  TSTM      73  70  90 CALM      30.01F
BEAUFORT ARPT  TSTM      72  70  94 CALM      30.02F
HILTON HEAD IS CLOUDY    72  72 100 S7        30.05F THUNDER
GEORGETOWN     NOT AVBL
WALTERBORO     CLOUDY    73 N/A N/A CALM      30.01F
ORANGEBURG     MOCLDY    74  71  91 W3        30.03F
BARNWELL       MOCLDY    75  73  94 SE5       30.04R
AIKEN          FAIR      72  72 100 S5        30.07R
MANNING        FAIR      75 N/A N/A CALM      30.02F
KINGSTREE      NOT AVBL
COLUMBIA       PTCLDY    77  71  82 S5        30.02R
SUMTER         PTCLDY    75  73  92 SE3       30.01S
FLORENCE       PTCLDY    74  72  93 CALM      30.03F
MYRTLE BEACH   PTCLDY    75  72  88 CALM      30.02F
N MYRTLE BEACH PTCLDY    76  72  87 N3        30.02F

$$

GAZ063-065-086>088-099>101-113>116-118-119-134-136>141-150-260500-
...GEORGIA...

CITY           SKY/WX    TMP DP  RH WIND       PRES   REMARKS
SAVANNAH ARPT  CLOUDY    78  73  84 SE6       30.03F
HUNTER AAF     CLOUDY    75  72  88 E3        30.03S
FORT STEWART   CLOUDY    79  73  83 S5        30.03S
STATESBORO     NOT AVBL
SYLVANIA       CLOUDY    74  74 100 S3        30.03F
CLAXTON        CLOUDY    81  77  89 E5        30.04R
THOMSON        MOCLDY    78  78 100 CALM      30.08R
AUGUSTA-BUSH   PTCLDY    73  71  93 CALM      30.02R
AUGUSTA-DANIEL CLOUDY    74  71  91 SE3       30.04R
SWAINSBORO     RAIN      79  79 100 E3        30.05S
VIDALIA          N/A     81  73  78 CALM      30.04R
ALMA           PTCLDY    78  73  84 S5        30.04R
WAYCROSS       PTCLDY    81  77  86 W3        30.05R
JESUP          NOT AVBL
BRUNSWICK      PTCLDY    81  72  74 SW6       30.05R
SAINT SIMONS   PTCLDY    80  73  79 SW12      30.04F

$$

SCZ027-028-034-036>038-045-046-048>050-GAZ119-141-260500-
...LAKE AND SUPPLEMENTAL COASTAL OBSERVATIONS...

STATION/POSITION TIME  TEMP    WIND        PRES    WAVE   SWELL
                       AIR SEA DIR/SP/G            HT/PER HT/PER/DIR
                 (UTC) (F)     (DEG/KT/KT) (MB)    (FT/S) (FT/S/D)
UPR LAKE MARION  NOT AVBL
WINYAH BAY       0300   74     340/  2     1017.0S
LAKE MURRAY      0300   79     150/  4/  5 1015.6F
ACE BASIN NERRS  0300   74     280/  2     1017.0S
FORT PULASKI     0400   76     350/  7/  9 1018.2R
SAPELO ISLAND    0300   83     220/ 11     1017.0F

$$

ANZ835-935-AMZ111-154-330-350-352-354-374-450-454-472-260500-
...C-MAN AND BUOY OBSERVATIONS...

STATION/POSITION TIME  TEMP    WIND        PRES    WAVE   SWELL
                       AIR SEA DIR/SP/G            HT/PER HT/PER/DIR
                 (UTC) (F)     (DEG/KT/KT) (MB)    (FT/S) (FT/S/D)
FOLLY BEACH CMAN 0300   76     340/  2/  2 1017.4R
BUOY 41004       0400   83 83  220/ 12/ 14 1015.8F   3/ 5   2/ 7
BUOY 41008       0400   84 85  240/ 16/ 17 1017.0R   4/ 5
5E ST. MARYS GA  0400      84                N/A     3/ 4
FRYING PAN BUOY  NOT AVBL
BUOY 41025       0400          VRB 12/ 14  1017.2F   3/ 6   2/ 90/ 6
CAPE LOOKOUT NC  0300   79      80/  9/ 10 1017.1S
BUOY 41002       0256   82 82  240/ 10/ 12 1019.0R   4/ 8   3/250/ 8
BUOY 41010       0400   83 84  170/ 14/ 14 1018.3S   2/ 7   2/120/ 7
BUOY 41012       NOT AVBL
ST AUGUSTINE FL  0400   75     220/ 10/ 11 1019.0R
CAPERS NEARSHORE 0300   78     310/  4/  6   N/A
FRIPP NEARSHORE  NOT AVBL


$$



USA.gov is the U.S. government's official web portal to all federal, state and local government web resources and services.